Location: Austin
(30.3000°N, 97.7500°W)
Time: 03:00:42
(UTC-05:00)

Okean 1-7 - Pass Details

Date: 01 October 2024
Orbit: 576 x 600 km, 82.5° (Epoch: 06 October)

Event Time Altitude Azimuth Distance (km) Brightness Sun altitude
Rises 21:21:03 0° 345° (NNW) 2,813 6.8 -27.8°
Reaches altitude 10° 21:23:20 10° 338° (NNW) 1,906 5.9 -28.3°
Enters shadow 21:26:51 40° 286° (WNW) 864 4.2 -29.0°
